Regional Weather Roundup
Issued by NWS

Home | Current Version | Previous Version | Graphics & Text | Print | Product List | Glossary On
Versions: 1 2 3 4 5 6 7 8 9 10 11 12 13 14 15 16 17 18 19 20 21 22 23 24 25 26 27 28 29 30 31 32 33 34 35 36 37 38 39 40 41 42 43 44 45 46 47 48 49 50
000
ASUS43 KLOT 230106
RWRIL

ILLINOIS REGIONAL WEATHER ROUNDUP
NATIONAL WEATHER SERVICE CHICAGO/ROMEOVILLE IL
800 PM CDT MON SEP 22 2014

NOTE: "FAIR" INDICATES FEW OR NO CLOUDS BELOW 12,000 FEET WITH NO
SIGNIFICANT WEATHER AND/OR OBSTRUCTIONS TO VISIBILITY.

* THESE STATIONS ARE NOT UNDER NWS QUALITY CONTROL. THEY ALSO MAY NOT
  REPORT WEATHER SUCH AS PRECIPITATION OR FOG.

ILZ001-002-007-009-015-016-024-230200-
NORTHWEST ILLINOIS

CITY           SKY/WX    TMP DP  RH WIND       PRES   REMARKS
MOLINE         CLEAR     55  48  77 CALM      30.24R
STERLING*      CLEAR     54  46  76 CALM      30.23S
SAVANNA*       CLEAR     56  51  81 CALM      30.23R
$$

ILZ003-004-008-010-011-017-018-230200-
NORTH CENTRAL ILLINOIS

CITY           SKY/WX    TMP DP  RH WIND       PRES   REMARKS
ROCKFORD       PTCLDY    58  47  66 S3        30.25S
FREEPORT*      CLEAR     55  47  72 SW5       30.25R
ROCHELLE*      CLEAR     55  47  72 W3        30.24S
DE KALB*       CLEAR     54  46  72 CALM      30.25R
PERU*          CLEAR     58  49  70 W3        30.25R
$$

ILZ005-006-012>014-019>023-230200-
NORTHEAST ILLINOIS

CITY           SKY/WX    TMP DP  RH WIND       PRES   REMARKS
CHICAGO-OHARE  CLEAR     59  44  57 SE9       30.24R
CHICAGO-MIDWAY CLEAR     61  46  57 VRB5      30.25R
AURORA         CLEAR     53  47  79 CALM      30.24S
LANSING*       CLEAR     56  45  66 SE3       30.26R
JOLIET*        CLEAR     52  48  88 CALM      30.26R
WAUKEGAN       CLEAR     53  49  86 CALM      30.22R
DUPAGE AIRPORT CLEAR     54  48  80 CALM      30.23R
KANKAKEE*      CLEAR     53  48  84 CALM      30.26R
WHEELING       CLEAR     58  46  64 S3        30.25R
MORRIS*        CLEAR     56  48  76 CALM      30.24S
ROMEOVILLE*    CLEAR     57  44  62 S3        30.25R
NORTHERLY ISL    N/A     58  48  69 SE8         N/A
$$

LMZ740>746-230200-
SOUTHERN LAKE MICHIGAN

STATION/POSITION SKY/WX   TEMP    WIND        PRES    VSBY  WAVE
                          AIR SEA DIR/SP/G                  HT/PER
                          (F)     (DEG/KT/KT) (MB)    (MI)  (FT/S)
SOUTHERN BUOY              60 62  180/ 10/ 12 1023.8R         1/ 6
WAUKEGAN HARBOR            58     180/ 13/ 14   N/A
BURNHAM HARBOR             58     140/  4/  7   N/A
CALUMET HARBOR             59     140/  3/  4 1023.0R
MICHIGAN CITY 6N           58 64  170/  6/ 10   N/A           2/ 6
ST. JOSEPH                 58 65  160/  8/ 10   N/A           1/ 5
$$

ILZ025>027-034>036-040-047-049-050-058-095>099-230200-
WEST-CENTRAL ILLINOIS

CITY           SKY/WX    TMP DP  RH WIND       PRES   REMARKS
QUINCY         CLEAR     66  45  46 E3        30.25R
GALESBURG*     CLEAR    N/A N/A N/A CALM      30.24S
MACOMB*        CLEAR     54  49  81 S3        30.27R
JACKSONVILLE*  CLEAR     58  51  76 CALM      30.26R
PITTSFIELD*    CLEAR     58  49  72 CALM      30.27R
$$

ILZ028>032-037-038-041>044-048-051>054-059>061-230200-
CENTRAL ILLINOIS

CITY           SKY/WX    TMP DP  RH WIND       PRES   REMARKS
PONTIAC        CLEAR     54  48  82 CALM      30.25R
BLOOMINGTON    CLEAR     63  42  46 CALM      30.27R
DECATUR        CLEAR     61  46  57 CALM      30.25R
PEORIA         CLEAR     58  50  75 CALM      30.25R
LACON*         CLEAR     52  48  86 CALM      30.24S
LINCOLN*       CLEAR     57  47  70 CALM      30.23R
SPRINGFIELD    CLEAR     55  49  80 CALM      30.25R
TAYLORVILLE    CLEAR     55  50  82 CALM      30.25R
$$

ILZ033-039-045-046-055>057-062-063-230200-
EAST-CENTRAL ILLINOIS

CITY           SKY/WX    TMP DP  RH WIND       PRES   REMARKS
CHAMPAIGN      CLEAR     54  47  77 CALM      30.26R
DANVILLE*      CLEAR     53  47  82 N3        30.23R
RANTOUL*       CLEAR     61  45  56 CALM      30.26R
MATTOON        CLEAR     56  49  77 CALM      30.25R
PARIS*         CLEAR     51  49  95 CALM      30.26R
$$

ILZ079-100>102-230200-
SOUTHWEST ILLINOIS

CITY           SKY/WX    TMP DP  RH WIND       PRES   REMARKS
ALTON          CLEAR     59  48  67 W6        30.24R
BELLEVILLE     CLEAR     58  52  81 CALM      30.23R
CAHOKIA*       CLEAR     58  51  78 CALM      30.24R
SPARTA*        CLEAR     57  49  75 CALM      30.25R
$$

ILZ064>066-069>071-074>076-080>082-084>086-088>090-092>094-230200-
SOUTH-CENTRAL ILLINOIS

CITY           SKY/WX    TMP DP  RH WIND       PRES   REMARKS
CARBONDALE     CLEAR     55  51  86 CALM      30.24R
CAIRO*         CLEAR     60  49  68 N3        30.22R
EFFINGHAM*     CLEAR     55  50  82 CALM      30.25R
MARION         CLEAR     55  50  82 CALM      30.24R
MT. VERNON     CLEAR     52  45  76 CALM      30.25R
CENTRALIA*     CLEAR     53  49  85 CALM      30.25R
SALEM*         CLEAR     55  52  88 E3        30.25R
METROPOLIS*    CLEAR     56  50  80 CALM      30.22R
$$

ILZ067-068-072-073-078-083-087-091-230200-
SOUTHEAST ILLINOIS

CITY           SKY/WX    TMP DP  RH WIND       PRES   REMARKS
LAWRENCEVILLE  CLEAR     54  49  83 NE6       30.25R
FLORA*         CLEAR     59  48  65 CALM      30.25R
FAIRFIELD*     CLEAR    N/A N/A N/A CALM      30.25R
HARRISBURG*    CLEAR     56  52  85 CALM      30.25R
ROBINSON*      CLEAR     55  50  82 CALM      30.25R
CARMI*         CLEAR     56  52  88 CALM      30.24R
$$

ABBREVIATIONS USED IN REMARKS
   TC - TEMPERATURE IN CELSIUS
  WCI - WIND CHILL INDEX
   HX - HEAT INDEX
  VSB - VISIBILITY
$$



USA.gov is the U.S. government's official web portal to all federal, state and local government web resources and services.